Location: Chèvreville
(49.1099°N, 2.8495°E)
Time: 12:19:24
(UTC+00:00)

Cosmos 1340 Rocket - Visible Passes

Search period start: 28 September 2023 00:00
Search period end: 08 October 2023 00:00
Orbit: 514 x 551 km, 81.2° (Epoch: 27 September)

Date Brightness Start Highest point End Pass type
(mag) Time Alt. Az. Time Alt. Az. Time Alt. Az.
28 Sep 3.3 18:42:09 10° NNW 18:46:10 65° W 18:50:09 10° S visible
29 Sep 3.2 18:32:24 10° NNW 18:36:27 67° W 18:40:26 10° S visible
30 Sep 3.2 18:22:40 10° NNW 18:26:43 69° W 18:30:42 10° S visible
01 Oct 3.2 18:12:55 10° NNW 18:16:58 71° W 18:20:58 10° S visible
02 Oct 3.1 18:03:10 10° NNW 18:07:13 73° W 18:11:13 10° S visible
03 Oct 3.1 17:53:24 10° NNW 17:57:28 76° W 18:01:27 10° S visible
